Temperature
24 24 23 24 24 24 24 24 23 23 24 23 22 21 21 21 21 21 21 20 20 19 19 19 18 18 17 17 17 17 16 16 16 16 16 15 15 15 15 15 15 15 15 15
24 23 24 25 25 24 24 24 23 23 24 23 22 21 22 21 21 21 21 20 20 20 19 19 18 17 17 17 16 16 16 16 16 15 15 15 15 15 15 15 15 14 14 14
23 24 25 24 24 24 24 23 23 23 23 23 22 21 21 21 21 21 20 20 20 20 19 18 18 17 17 17 16 16 16 16 15 15 15 15 15 14 14 14 14 14 14 14
23 24 24 24 23 23 23 24 23 23 22 21 22 20 21 21 21 21 20 20 20 20 19 18 18 17 17 16 16 16 16 16 15 15 15 15 14 14 14 14 14 14 14 14
23 23 23 23 23 23 23 23 23 23 22 22 22 21 21 21 20 21 20 20 20 20 19 18 18 17 17 16 16 16 16 16 15 15 15 14 14 14 14 14 14 14 13 13
23 24 23 23 23 24 23 23 23 23 22 21 22 22 21 21 21 21 21 20 20 20 19 18 18 17 16 16 16 16 16 15 15 15 14 14 14 14 14 14 13 13 13 13
23 23 23 23 22 23 23 21 21 20 20 21 23 22 21 22 22 22 21 21 20 20 19 18 17 17 16 16 16 15 15 15 15 14 14 14 14 14 13 13 13 13 13 13
22 22 23 23 22 22 22 22 20 20 20 21 23 22 21 22 22 22 21 20 20 19 19 18 17 16 16 15 15 15 15 15 14 14 14 14 13 13 13 13 13 13 13 13
21 21 23 23 23 22 22 21 22 21 21 21 22 22 21 22 21 21 21 20 20 19 19 18 17 16 16 15 15 15 15 14 14 14 14 13 13 13 13 13 13 13 12 12
22 21 22 23 22 22 22 21 21 20 20 20 21 21 20 20 20 20 20 20 20 19 18 17 17 16 15 15 15 15 14 14 14 14 13 13 13 13 13 13 13 12 12 12
22 21 21 22 21 20 21 21 21 20 20 19 19 20 22 21 21 20 20 20 19 19 18 17 16 16 15 15 14 14 14 14 14 13 13 13 13 13 13 13 12 12 12 12
21 20 20 21 21 22 21 20 20 19 19 20 19 19 21 21 21 21 20 20 19 19 18 17 16 16 15 15 14 14 14 14 13 13 13 13 13 13 12 12 12 12 12 11
20 20 19 19 20 20 20 20 20 20 19 19 19 19 21 20 20 20 20 19 19 18 18 17 16 16 15 14 14 14 14 14 13 13 13 13 12 12 12 12 12 11 11 11
19 19 19 18 19 20 19 20 20 19 18 18 19 19 20 20 19 19 19 19 19 18 17 17 16 15 15 14 14 13 13 13 13 13 12 12 12 12 12 12 11 11 11 11
19 19 19 20 20 20 20 19 19 19 19 18 19 19 19 19 19 19 19 19 18 18 17 16 16 15 14 14 13 13 13 13 13 12 12 12 12 12 11 11 11 11 11 10
19 18 19 19 20 20 19 19 19 19 19 19 19 19 19 19 19 19 18 18 17 17 17 16 15 15 14 14 13 13 12 12 12 12 12 12 11 11 11 11 11 10 10 10
18 18 18 18 19 19 18 19 19 19 19 19 18 18 19 19 18 18 18 17 17 16 16 15 15 14 14 13 13 12 12 12 11 11 11 11 11 11 11 10 10 10 10 9
18 17 17 17 18 16 18 19 19 19 19 19 19 19 19 18 18 17 17 16 16 16 15 15 14 14 13 13 12 12 12 11 11 11 10 10 10 10 10 10 10 9 9 9
18 17 16 16 16 17 18 19 19 18 18 19 18 18 18 17 17 17 16 16 15 15 15 14 14 13 13 13 12 12 11 11 10 10 10 10 10 10 10 9 9 9 9 8
17 17 16 16 15 15 17 18 18 18 17 17 17 17 17 17 15 15 15 15 15 14 14 13 13 13 12 12 12 11 11 10 10 10 9 9 9 9 9 9 9 8 8 8
16 16 15 15 15 16 17 17 17 16 15 16 17 16 16 15 15 15 15 14 14 13 13 13 12 12 12 11 11 11 10 10 10 9 9 9 9 9 9 8 8 8 8 8
16 15 15 15 14 15 16 16 15 15 15 16 15 15 15 14 14 14 14 13 13 13 12 12 12 11 11 11 11 10 10 10 9 9 9 8 8 8 8 8 8 7 7 7
16 16 15 15 15 15 15 15 15 14 15 15 14 14 14 13 13 13 13 13 12 12 12 11 11 11 10 10 10 10 10 9 9 9 8 8 8 7 7 7 7 7 6 6
15 16 15 15 15 15 15 14 14 14 13 13 13 13 13 13 13 13 12 12 12 11 11 11 10 10 10 10 10 10 9 9 9 8 8 7 7 7 7 6 6 6 6 5
14 14 14 14 14 14 14 13 13 13 13 13 12 12 12 12 12 12 12 11 11 11 10 10 10 10 9 9 9 9 9 8 8 8 7 7 7 6 6 6 6 5 5 5
13 13 12 13 13 13 12 12 12 12 12 12 12 12 12 12 11 11 11 11 10 10 10 9 9 9 9 9 9 8 8 8 8 7 7 6 6 6 6 5 5 5 5 4
Wind_Speed
5 5 5 6 6 7 6 5 5 4 5 5 6 6 6 7 6 5 5 5 6 6 6 6 7 7 6 5 4 5 5 4 4 2 2 3 2 2 3 3 5 6 6 5
4 5 4 4 5 7 7 6 5 2 4 4 5 7 6 7 8 6 5 5 6 6 7 7 8 8 7 6 5 5 5 4 4 2 2 2 2 2 2 3 4 4 4 5
4 2 3 4 5 7 7 6 5 4 4 7 6 7 7 7 7 7 6 4 5 6 7 7 7 7 7 7 6 5 5 5 4 4 2 2 2 1 2 2 1 2 4 4
3 3 4 5 6 7 6 4 6 6 6 6 7 5 6 8 8 8 7 6 5 6 6 7 6 6 6 6 5 5 5 5 4 4 3 2 2 1 1 1 0 1 3 4
3 3 5 6 5 6 5 6 8 9 9 9 9 7 4 7 7 8 8 7 6 5 7 7 7 6 6 5 5 5 4 5 5 4 3 3 2 1 1 1 1 1 1 2
6 4 4 5 6 6 6 8 10 9 7 9 9 7 3 5 7 7 7 7 7 6 6 7 7 6 5 5 5 5 4 4 4 4 4 3 3 2 2 1 1 1 0 1
7 5 4 2 4 4 6 6 4 4 6 6 5 5 2 3 4 6 6 5 5 6 6 6 7 7 6 6 5 4 4 4 4 4 3 4 3 3 3 2 2 1 0 0
7 6 5 3 5 5 7 7 5 4 5 5 5 4 3 5 5 5 4 4 5 6 7 7 7 7 6 6 5 5 4 4 4 4 3 3 2 2 2 2 2 2 1 1
6 4 3 4 5 6 6 6 7 7 9 8 5 3 3 5 5 5 5 4 5 5 6 7 7 7 6 6 6 5 5 4 3 3 3 3 3 2 2 2 2 2 1 1
8 8 5 3 3 6 6 6 5 4 5 6 5 4 3 5 5 4 5 5 4 5 6 7 7 7 6 6 5 5 5 4 4 3 3 2 2 2 1 1 1 1 1 0
9 8 7 5 5 5 5 6 5 5 5 5 5 1 2 3 4 5 5 4 4 5 5 6 6 6 6 6 5 5 5 4 4 4 3 2 2 2 2 2 1 1 1 0
6 7 9 7 5 4 5 6 7 5 6 6 6 2 3 4 2 3 4 4 4 5 6 6 6 6 6 6 5 5 5 5 4 4 3 3 2 2 2 1 1 1 0 0
5 6 7 5 4 4 5 6 7 7 7 7 7 3 2 2 2 2 2 3 3 4 5 5 5 5 5 6 5 5 4 4 4 4 3 3 2 1 2 1 1 0 0 0
4 7 8 8 6 4 6 7 7 7 7 8 8 7 4 1 1 1 1 2 3 3 5 6 5 5 5 5 5 5 4 4 4 4 3 3 3 2 1 1 1 1 1 1
4 8 11 12 11 9 9 9 9 10 10 10 10 9 6 2 1 1 0 1 2 3 4 5 5 5 4 4 4 4 4 3 3 3 3 2 2 2 2 2 2 1 1 2
5 8 11 13 12 11 13 12 12 12 12 12 11 10 5 5 3 2 1 1 0 1 2 3 4 4 5 5 4 4 4 4 4 4 3 2 2 2 2 2 2 2 1 2
6 8 10 11 10 11 13 10 11 10 9 9 10 8 5 5 4 2 1 1 0 0 0 1 3 3 3 4 4 4 4 4 4 4 3 3 2 2 2 2 2 1 1 1
8 9 7 8 9 12 5 3 4 7 8 7 7 6 5 4 2 2 2 1 0 1 1 1 1 2 2 3 3 4 4 4 4 3 3 3 2 2 2 2 1 1 1 1
9 8 7 7 9 10 6 3 4 6 7 4 6 6 3 2 2 1 3 3 2 2 2 2 1 1 2 3 4 4 4 4 3 3 3 3 2 2 2 1 1 0 0 1
7 8 8 8 8 8 3 3 4 5 6 4 5 4 3 2 2 1 2 3 3 3 2 2 2 1 2 3 4 5 4 4 4 3 3 2 2 2 2 1 1 0 0 0
5 7 8 10 10 7 2 4 3 4 3 5 5 4 4 3 2 2 3 3 3 2 2 2 2 1 1 2 4 5 4 4 3 3 3 2 2 2 1 1 1 0 0 0
6 5 6 6 8 6 3 2 2 3 4 5 5 4 4 4 3 3 2 2 2 2 2 2 2 1 1 2 3 3 4 3 3 3 3 3 2 2 1 1 1 0 0 0
5 4 3 4 4 2 2 3 5 6 7 7 5 4 3 3 3 3 2 1 1 1 1 2 2 1 1 2 2 3 2 3 4 4 3 3 2 2 2 2 1 0 0 0
5 5 6 6 5 5 5 4 4 5 6 7 7 5 4 4 4 4 3 1 1 1 1 1 1 2 1 1 2 2 3 4 4 4 3 3 2 2 2 1 1 1 1 1
6 5 8 9 7 6 5 6 7 6 5 6 6 5 4 4 4 3 3 1 1 0 0 0 1 1 1 1 1 2 3 4 4 4 3 2 2 2 2 1 0 1 0 1
7 7 7 7 7 6 7 7 8 7 6 6 6 6 5 4 4 3 2 1 1 1 0 1 1 1 1 1 2 2 3 4 4 3 3 2 2 2 1 1 1 1 1 1
Wind_Direction
213 219 224 230 245 269 269 254 240 202 174 196 210 219 192 186 203 205 198 195 178 165 160 151 146 142 133 125 125 120 122 117 105 95 87 89 77 72 65 53 56 40 29 39
223 237 246 250 259 264 263 260 258 213 177 219 227 233 208 189 196 203 204 202 178 162 156 154 147 152 149 147 151 142 139 133 121 107 95 96 94 85 97 58 54 44 30 32
241 248 262 253 257 259 258 268 276 264 234 232 235 238 214 198 194 193 202 207 182 170 165 156 152 155 154 156 162 155 145 139 128 118 104 97 97 75 61 63 46 19 36 43
253 264 282 272 263 279 275 287 286 269 260 256 237 255 209 194 195 193 193 196 190 175 165 158 155 150 156 155 158 157 151 145 136 127 119 114 116 120 148 124 107 6 29 37
258 254 271 278 282 288 298 295 277 270 262 264 246 251 220 182 195 197 193 193 190 172 162 158 155 154 151 148 156 158 151 138 132 135 143 149 144 159 154 141 136 103 29 33
265 256 269 281 289 280 283 275 264 254 255 254 243 237 228 197 201 188 186 187 179 172 157 151 142 139 136 132 138 147 146 142 142 149 158 165 170 182 170 149 132 121 61 10
249 230 234 273 282 269 278 279 270 237 230 239 233 233 203 158 161 163 169 171 172 164 155 147 144 148 147 145 143 142 145 144 143 151 165 182 191 196 179 167 173 169 163 303
258 239 217 231 260 267 259 265 272 281 281 284 247 227 155 124 125 131 137 149 168 168 158 154 152 156 156 153 151 151 146 153 157 167 182 186 183 195 188 183 174 181 200 207
295 272 218 220 242 268 270 264 276 283 283 276 248 200 158 135 140 147 153 162 166 160 159 157 156 160 160 159 157 159 156 157 165 179 190 189 181 178 171 182 171 181 212 226
290 289 265 219 228 234 260 283 285 276 283 279 266 247 202 160 180 168 173 177 164 153 158 157 160 165 162 157 156 161 161 171 180 187 197 200 180 164 159 153 132 158 211 219
282 274 264 240 231 249 242 256 268 276 275 282 281 294 30 150 172 172 175 171 166 158 166 160 163 164 158 152 160 170 171 176 182 190 191 188 182 180 176 163 138 166 222 192
275 275 268 254 239 233 244 259 262 264 273 281 287 290 48 58 84 137 164 167 171 159 160 160 162 158 156 158 165 176 178 176 175 178 177 191 180 174 183 167 148 187 237 334
300 273 270 251 219 215 238 253 266 268 273 270 269 261 143 78 75 71 105 124 140 149 150 151 153 157 162 166 170 175 181 174 167 168 170 174 150 152 180 177 154 165 77 20
289 268 268 271 288 281 267 267 262 259 260 267 267 278 280 349 46 21 150 149 147 158 157 157 158 164 166 168 172 173 176 164 163 163 166 167 154 165 173 140 116 74 48 11
260 264 271 278 282 284 284 277 266 257 260 265 280 286 298 312 295 289 265 157 160 168 166 163 163 169 168 169 174 171 165 160 161 161 165 157 143 139 102 78 74 60 30 2
252 267 274 274 269 271 275 271 263 261 263 265 275 280 298 304 308 318 49 55 82 141 162 166 169 175 174 173 175 171 167 167 164 163 157 135 120 108 98 85 71 58 31 11
263 266 272 272 274 277 265 262 258 255 256 261 267 277 291 291 296 320 39 44 349 322 110 156 176 181 177 174 176 177 174 167 162 155 141 127 119 116 112 92 86 71 33 48
271 272 267 274 277 262 261 284 279 271 268 274 281 290 289 292 316 356 33 61 346 358 86 104 143 159 165 168 170 166 158 152 150 145 138 130 129 130 119 109 113 91 37 36
251 257 261 263 264 267 263 275 287 281 276 288 294 296 294 295 317 12 35 31 38 46 63 77 74 113 151 157 157 148 146 148 149 150 149 144 142 137 135 154 163 118 48 352
241 243 251 258 261 263 286 336 331 295 276 354 342 337 329 321 284 292 33 34 35 47 60 74 79 84 129 144 147 150 160 158 162 158 150 139 141 145 161 184 157 107 93 330
242 232 238 251 257 261 339 340 308 270 324 358 346 354 359 329 337 3 23 37 44 54 65 87 100 96 122 144 148 159 165 172 163 145 142 148 151 153 154 128 114 94 103 14
261 254 245 246 253 259 22 343 311 337 346 345 357 10 5 350 353 356 9 32 47 53 75 102 117 113 120 146 154 164 176 164 145 146 147 148 144 146 124 114 110 68 148 197
257 268 280 264 261 325 333 322 341 347 336 343 350 354 354 326 319 328 335 354 57 76 94 102 118 133 144 151 163 175 176 144 137 138 141 141 135 136 136 136 137 167 235 222
280 300 284 278 278 303 311 325 331 337 335 336 336 339 339 323 322 330 322 332 46 73 76 90 148 164 162 156 164 172 159 142 142 146 148 144 142 139 133 143 164 180 220 241
295 291 284 279 288 298 301 331 335 334 330 329 330 329 326 321 315 312 309 318 345 34 70 213 205 185 171 162 167 161 147 148 155 156 155 150 151 154 145 120 119 176 243 233
274 274 274 281 313 309 312 325 334 333 331 330 325 321 319 316 312 316 315 320 307 274 251 237 218 208 206 166 165 144 143 154 157 160 160 155 156 148 136 126 29 3 266 281
Height
1492 1494 1496 1494 1492 1493 1493 1495 1498 1498 1496 1501 1505 1506 1506 1508 1509 1510 1512 1513 1515 1517 1520 1521 1522 1524 1526 1528 1529 1530 1531 1532 1532 1533 1534 1535 1535 1536 1536 1536 1536 1536 1535 1535
1493 1495 1492 1490 1491 1491 1492 1496 1497 1496 1495 1499 1503 1503 1502 1503 1506 1508 1509 1511 1512 1514 1517 1519 1521 1523 1524 1526 1528 1529 1530 1531 1532 1533 1534 1534 1535 1535 1536 1536 1536 1536 1535 1535
1494 1494 1490 1490 1492 1493 1493 1496 1497 1498 1495 1495 1500 1504 1500 1500 1502 1504 1506 1508 1510 1511 1514 1516 1518 1520 1523 1524 1527 1528 1529 1530 1531 1532 1533 1534 1534 1535 1535 1535 1535 1535 1535 1534
1492 1491 1491 1492 1493 1493 1497 1492 1493 1495 1500 1502 1500 1509 1499 1496 1499 1500 1503 1505 1507 1509 1512 1514 1516 1518 1520 1522 1524 1526 1528 1529 1530 1530 1532 1532 1533 1533 1534 1534 1534 1534 1534 1534
1493 1491 1493 1494 1493 1493 1494 1491 1492 1494 1497 1500 1496 1503 1498 1492 1497 1497 1498 1501 1504 1506 1509 1511 1513 1516 1518 1520 1522 1524 1526 1527 1528 1529 1530 1531 1531 1532 1532 1533 1532 1533 1533 1532
1491 1490 1491 1492 1491 1491 1491 1492 1491 1491 1496 1506 1493 1498 1500 1493 1492 1492 1495 1498 1501 1504 1506 1509 1511 1514 1516 1518 1520 1522 1524 1525 1526 1527 1528 1529 1530 1530 1531 1531 1531 1531 1531 1531
1493 1490 1490 1491 1493 1492 1493 1499 1507 1507 1508 1502 1485 1491 1495 1486 1485 1488 1491 1495 1498 1501 1504 1507 1509 1512 1514 1516 1518 1520 1522 1523 1524 1525 1526 1527 1528 1528 1529 1529 1529 1529 1529 1529
1497 1497 1490 1491 1493 1495 1494 1497 1510 1516 1509 1498 1485 1490 1488 1481 1484 1486 1489 1493 1497 1499 1502 1504 1507 1509 1512 1514 1515 1517 1519 1520 1522 1523 1524 1525 1526 1527 1527 1527 1527 1527 1528 1527
1497 1496 1488 1488 1489 1492 1494 1496 1492 1500 1498 1499 1490 1485 1484 1481 1484 1486 1489 1492 1494 1497 1499 1502 1505 1507 1510 1512 1513 1515 1517 1518 1519 1520 1522 1523 1524 1524 1525 1525 1526 1526 1526 1526
1494 1498 1490 1488 1490 1491 1492 1493 1496 1502 1507 1507 1494 1490 1491 1487 1486 1486 1488 1490 1492 1495 1498 1500 1503 1505 1507 1509 1511 1513 1514 1516 1517 1518 1519 1521 1521 1522 1523 1523 1523 1524 1524 1524
1494 1498 1494 1490 1493 1495 1494 1496 1495 1497 1497 1505 1506 1500 1481 1482 1482 1484 1486 1488 1491 1494 1496 1498 1501 1503 1505 1507 1508 1510 1512 1513 1515 1516 1517 1518 1519 1520 1521 1521 1521 1522 1522 1522
1494 1496 1496 1492 1487 1487 1490 1493 1495 1505 1502 1496 1501 1501 1480 1480 1481 1482 1484 1487 1489 1492 1494 1496 1498 1501 1502 1504 1506 1507 1509 1510 1512 1513 1515 1516 1517 1517 1518 1519 1519 1520 1520 1520
1496 1498 1501 1499 1496 1491 1491 1491 1492 1494 1497 1498 1503 1500 1482 1481 1482 1483 1484 1486 1488 1490 1492 1494 1496 1498 1500 1502 1504 1505 1507 1508 1509 1511 1512 1513 1514 1515 1515 1516 1517 1517 1517 1517
1498 1497 1500 1505 1498 1493 1493 1492 1491 1494 1499 1498 1495 1492 1484 1483 1483 1484 1484 1485 1486 1488 1490 1492 1494 1496 1498 1499 1501 1503 1504 1506 1507 1508 1509 1511 1511 1512 1513 1514 1514 1515 1515 1515
1496 1497 1494 1491 1488 1488 1489 1490 1490 1492 1492 1496 1492 1488 1485 1483 1483 1483 1483 1484 1485 1487 1489 1490 1492 1494 1496 1497 1499 1500 1501 1503 1504 1505 1507 1508 1509 1510 1511 1511 1511 1512 1512 1512
1494 1495 1493 1492 1487 1486 1488 1486 1487 1487 1487 1487 1487 1486 1482 1482 1482 1482 1483 1484 1485 1486 1488 1489 1491 1492 1493 1494 1496 1497 1498 1500 1501 1503 1504 1505 1506 1507 1508 1508 1509 1509 1509 1509
1493 1494 1497 1494 1487 1486 1488 1482 1482 1482 1481 1483 1486 1484 1481 1481 1481 1481 1482 1483 1484 1485 1486 1487 1489 1490 1491 1492 1493 1495 1496 1497 1499 1500 1501 1503 1503 1504 1505 1506 1506 1506 1506 1506
1493 1494 1495 1494 1492 1499 1485 1477 1477 1478 1477 1477 1477 1477 1478 1479 1480 1481 1481 1481 1482 1484 1485 1486 1487 1488 1489 1490 1491 1492 1494 1495 1496 1497 1499 1499 1500 1501 1502 1502 1503 1503 1503 1503
1490 1492 1495 1495 1496 1489 1481 1477 1477 1478 1477 1476 1476 1476 1477 1477 1478 1479 1480 1480 1481 1482 1483 1484 1485 1486 1486 1487 1488 1490 1491 1492 1494 1495 1496 1496 1497 1498 1499 1499 1500 1500 1500 1500
1487 1488 1494 1494 1497 1495 1484 1478 1477 1479 1480 1476 1476 1476 1477 1477 1480 1480 1480 1480 1480 1481 1482 1482 1483 1484 1484 1485 1486 1487 1489 1490 1491 1491 1493 1494 1495 1495 1496 1497 1497 1497 1497 1497
1489 1490 1493 1493 1493 1485 1481 1479 1478 1487 1486 1479 1477 1477 1478 1478 1480 1480 1479 1479 1479 1480 1480 1480 1481 1481 1482 1483 1484 1485 1486 1487 1488 1489 1490 1491 1492 1493 1494 1494 1494 1494 1494 1494
1487 1489 1489 1490 1493 1490 1482 1480 1483 1484 1481 1480 1478 1478 1478 1478 1478 1478 1478 1478 1478 1478 1479 1479 1479 1480 1480 1481 1482 1482 1483 1484 1486 1487 1488 1489 1490 1490 1491 1491 1491 1491 1491 1491
1484 1485 1486 1487 1488 1483 1482 1482 1482 1481 1480 1479 1478 1478 1477 1477 1477 1477 1477 1477 1477 1477 1477 1477 1478 1478 1479 1479 1480 1480 1481 1482 1483 1484 1485 1486 1487 1488 1488 1488 1488 1488 1488 1488
1482 1482 1482 1482 1480 1480 1480 1480 1480 1480 1480 1479 1478 1477 1477 1476 1476 1476 1476 1475 1475 1475 1475 1476 1476 1476 1477 1477 1478 1478 1479 1479 1480 1481 1482 1483 1484 1484 1485 1485 1485 1485 1485 1484
1485 1484 1483 1481 1480 1479 1479 1479 1479 1478 1478 1477 1476 1476 1475 1475 1474 1474 1474 1474 1474 1474 1473 1474 1474 1474 1474 1475 1475 1476 1476 1476 1477 1478 1479 1480 1480 1481 1481 1482 1482 1482 1482 1482
1484 1484 1485 1482 1481 1481 1480 1479 1478 1477 1476 1476 1475 1474 1474 1473 1473 1472 1472 1472 1472 1472 1471 1471 1472 1472 1472 1472 1473 1473 1473 1474 1474 1475 1476 1477 1477 1478 1478 1478 1479 1479 1480 1480